Погода в Липовке

Россия / Тамбовская область     52°33′22″N   42°01′40″E
темп.,
°C
ветер,
м/с
пор.,
м/с
влажн.,
%
обл.,
%
осадки,
мм/ч
давл.,
гПа
погр.,
м
19 сентября, вс
вс1900:00+8в51055100 0.0 1022395
03:00+8вюв51058100 0.0 1022468
06:00+7в51169100 0.3 1021433
09:00+7вюв71272100 0.4 1021418
12:00+10вюв81160100 0.2 1020538
15:00+11вюв81355100 0.3 1019814
18:00+8в81577100 2.0 1018557
21:00+8в91878100 4.3 1017606
20 сентября, пн
пн2000:00+8вюв101979100 2.5 1016817
03:00+7вюв101884100 4.8 1014766
06:00+7вюв101992100 7.8 1013780
09:00+7вюв91791100 13.4 1013797
12:00+8вюв81587100 0.6 1013687
15:00+8вюв81490100 0.6 1013571
18:00+9вюв81490100 0.0 1012495
21:00+9юв7149495 1.3 1013496
21 сентября, вт
вт2100:00+9юв7129295 0.4 1013414
03:00+8юв5109578 0.4 1013363
06:00+9юв4895100 0.3 1013252
09:00+9вюв4796100 1.6 1013268
12:00+13юв3479100 0.3 1012624
15:00+15юв3469100 0.8 1011834
18:00+13юв3379100 0.6 101038
21:00+12в228178 0.9 101028
22 сентября, ср
ср2200:00+11в239176 0.5 100961
03:00+11юз229167 1.4 100947
06:00+9зюз479330 0.1 1009256
09:00+10з468556 0.1 1010411
12:00+13зюз556596 0.1 10111204
15:00+13юз445748 0.2 10121195
18:00+10юз367167 0.1 1014181
21:00+9юз3670100 0.1 1015502
23 сентября, чт
чт2300:00+8ююз227588 0.0 101633
03:00+8ю1273100 0.0 101690
06:00+8ююв2374100 0.0 1016125
09:00+9ююв3470100 0.0 1017373
12:00+13ююв4554100 0.0 10161251
15:00+13ююв4549100 0.1 10161482
18:00+11юв3561100 0.0 1017103
21:00+9в3366100 0.0 101641